Weather History for Punta Gorda, FL

Change the Weather History Date:

Thursday, January 16, 2014

  Actual Average Record
Temperature  
Mean Temperature 52 °F -  
Max Temperature 60 °F 71 °F 82 °F (1999)
Min Temperature 43 °F 47 °F 39 °F (2003)
Degree Days  
Heating Degree Days 12    
Growing Degree Days 2 (Base 50)    
Moisture  
Dew Point 39 °F    
Average Humidity 63    
Maximum Humidity 90    
Minimum Humidity 37    
Precipitation  
Precipitation 0.08 in - - ()
Sea Level Pressure  
Sea Level Pressure 30.13 in    
Wind  
Wind Speed 12 mph (NNW)    
Max Wind Speed 16 mph    
Max Gust Speed 24 mph    
Visibility 10 miles    
Events Rain    
Averages and records for this station are not official NWS values.
T = Trace of Precipitation, MM = Missing Value Source: NWS Daily Summary

Daily Weather History Graph

Daily Weather History Graph

Search for Another Location

Airport:

Trip Planner

Search our weather history database for the weather conditions in past years. The results will help you decide how hot, cold, wet, or windy it might be!

Date:

Astronomy

Jan. 16, 2014 Rise Set
Actual Time 7:18 AM EST 5:57 PM EST
Civil Twilight 6:53 AM EST 6:22 PM EST
Nautical Twilight 6:24 AM EST 6:50 PM EST
Astronomical Twilight 5:56 AM EST 7:18 PM EST
Moon 6:38 PM EST (1/16) 7:18 AM EST (1/16)
Length of Visible Light 11h 29m
Length of Day
10h 39m
Full, 100% of the Moon is Illuminated
Jan 16
Full
Jan 24
Last Quarter
Jan 30
New
Feb 6
First Quarter
Feb 14
Full

Hourly Weather History & Observations

Time (EST) Temp. Windchill Dew Point Humidity Pressure Visibility Wind Dir Wind Speed Gust Speed Precip Events Conditions
12:44 AM 57.0 °F - 54.0 °F 89% 30.03 in 10.0 mi NW 11.5 mph - 0.08 in Rain Light Rain
12:53 AM 57.0 °F - 53.1 °F 87% 30.03 in 10.0 mi NNW 12.7 mph - 0.08 in   Overcast
1:01 AM 57.0 °F - 53.1 °F 87% 30.03 in 10.0 mi NW 11.5 mph - N/A   Overcast
1:53 AM 55.9 °F - 53.1 °F 90% 30.04 in 10.0 mi NNW 11.5 mph - N/A   Overcast
2:53 AM 55.0 °F - 51.1 °F 86% 30.06 in 10.0 mi NNW 15.0 mph - N/A   Overcast
3:53 AM 54.0 °F - 48.9 °F 83% 30.07 in 10.0 mi North 13.8 mph - N/A   Overcast
4:08 AM 53.1 °F - 48.0 °F 83% 30.07 in 10.0 mi NNW 11.5 mph 20.7 mph N/A   Overcast
4:53 AM 51.1 °F - 46.0 °F 83% 30.08 in 10.0 mi NNW 12.7 mph - N/A   Clear
5:53 AM 50.0 °F - 41.0 °F 71% 30.09 in 10.0 mi North 13.8 mph 24.2 mph N/A   Clear
6:53 AM 48.0 °F - 37.0 °F 66% 30.10 in 10.0 mi North 13.8 mph - N/A   Clear
7:53 AM 46.9 °F - 36.0 °F 66% 30.13 in 10.0 mi NNE 8.1 mph - N/A   Clear
8:53 AM 50.0 °F - 33.1 °F 52% 30.16 in 10.0 mi NNE 11.5 mph - N/A   Clear
9:53 AM 52.0 °F - 28.0 °F 40% 30.19 in 10.0 mi North 16.1 mph 19.6 mph N/A   Clear
10:53 AM 55.0 °F - 28.9 °F 37% 30.19 in 10.0 mi North 10.4 mph - N/A   Clear
11:53 AM 55.9 °F - 30.9 °F 39% 30.17 in 10.0 mi NNW 12.7 mph 21.9 mph N/A   Clear
12:53 PM 57.0 °F - 32.0 °F 39% 30.15 in 10.0 mi NW 10.4 mph 19.6 mph N/A   Clear
1:53 PM 60.1 °F - 34.0 °F 38% 30.12 in 10.0 mi NW 10.4 mph - N/A   Clear
2:53 PM 59.0 °F - 33.1 °F 38% 30.12 in 10.0 mi WNW 15.0 mph 21.9 mph N/A   Clear
3:53 PM 59.0 °F - 34.0 °F 39% 30.14 in 10.0 mi WNW 12.7 mph - N/A   Clear
4:53 PM 55.9 °F - 33.1 °F 42% 30.15 in 10.0 mi NW 10.4 mph - N/A   Clear
5:53 PM 52.0 °F - 34.0 °F 50% 30.16 in 10.0 mi NW 12.7 mph - N/A   Clear
6:53 PM 50.0 °F - 35.1 °F 57% 30.17 in 10.0 mi NW 9.2 mph - N/A   Clear
7:53 PM 48.0 °F - 35.1 °F 61% 30.17 in 10.0 mi NW 6.9 mph - N/A   Clear
8:53 PM 46.0 °F 43.1 °F 36.0 °F 68% 30.19 in 10.0 mi North 5.8 mph - N/A   Clear
9:53 PM 46.9 °F - 35.1 °F 63% 30.20 in 10.0 mi North 6.9 mph - N/A   Clear
10:53 PM 45.0 °F 41.2 °F 35.1 °F 68% 30.19 in 10.0 mi North 6.9 mph - N/A   Clear
11:53 PM 43.0 °F 40.3 °F 34.0 °F 71% 30.19 in 10.0 mi East 4.6 mph - N/A   Clear